Location: Newark
(45.8511°N, 10.8245°E)
Time: 21:51:46
(UTC+00:00)

OTV 5 (USA 277) - Pass Details

Date: 30 August 2019
Orbit: 310 x 324 km, 54.5° (Epoch: 17 October)

Event Time Altitude Azimuth Distance (km) Brightness Sun altitude
Rises 19:21:47 0° 280° (W) 2,042 ? -14.2°
Reaches altitude 10° 19:24:12 10° 304° (NW) 1,212 ? -14.5°
Maximum altitude 19:26:01 16° 347° (NNW) 923 ? -14.8°
Drops below altitude 10° 19:27:50 10° 29° (NNE) 1,211 ? -15.1°
Enters shadow 19:28:46 - 42° (NE) 1,500 ? -15.2°
